This demonstration page uses our WeatherBlox Daily Observations layout. Learn more.

Left ArrowRight Arrow

39.01783, -85.05884

Hourly Observations for December 15, 2020

Temp ( °F °C ) Dew Point ( °F °C ) Humidity (%) Winds ( mph kmh ) Pressure ( in mb ) Visibility ( mi km ) Precip ( " mm )
12:52 am 00:52 Partly Cloudy 25 -3.9 19 -7.2 78 78 N N/A 30.32 1027 10 16 N/A
1:52 am 01:52 Mostly Cloudy 25 -3.9 19 -7.2 78 78 NW 6 9 30.33 1027 10 16 N/A
2:52 am 02:52 Partly Cloudy 25 -3.9 20 -6.7 81 81 N 6 9 30.34 1027 10 16 N/A
3:52 am 03:52 Partly Cloudy 24 -4.4 20 -6.7 84 84 N 5 7 30.32 1027 9 14 N/A
4:52 am 04:52 Partly Cloudy 25 -3.9 20 -6.7 81 81 N 7 11 30.31 1026 8 13 N/A
5:52 am 05:52 Mostly Cloudy 26 -3.3 20 -6.7 78 78 NE 9 15 30.31 1026 10 16 N/A
6:52 am 06:52 Mostly Cloudy 27 -2.8 19 -7.2 72 72 NE 9 15 30.32 1027 10 16 N/A
7:52 am 07:52 Mostly Cloudy 26 -3.3 18 -7.8 71 71 ENE 7 11 30.35 1028 10 16 N/A
8:52 am 08:52 Mostly Cloudy 27 -2.8 19 -7.2 72 72 NE 8 13 30.37 1029 10 16 N/A
9:52 am 09:52 Mostly Cloudy 30 -1.1 19 -7.2 64 64 ENE 12 19 30.39 1029 10 16 N/A
10:52 am 10:52 Mostly Cloudy 32 undefined 18 -7.8 56 56 ENE 9 15 30.38 1029 10 16 N/A
11:52 am 11:52 Cloudy 33 0.6 17 -8.3 52 52 E 12 19 30.35 1028 10 16 N/A
12:52 pm 12:52 Cloudy 34 1.1 18 -7.8 52 52 E 12 19 30.30 1026 10 16 N/A
1:52 pm 13:52 Mostly Cloudy 36 2.2 19 -7.2 50 50 ENE 12 19 30.27 1025 10 16 N/A
2:52 pm 14:52 Cloudy 36 2.2 19 -7.2 50 50 ENE 14 22 30.22 1023 10 16 N/A
3:52 pm 15:52 Cloudy 36 2.2 19 -7.2 50 50 ENE 15 24 30.19 1023 10 16 N/A
4:52 pm 16:52 Cloudy 35 1.7 19 -7.2 52 52 ENE 16 26 30.18 1022 10 16 N/A
5:52 pm 17:52 Cloudy 34 1.1 20 -6.7 56 56 ENE 14 22 30.17 1022 10 16 N/A
6:52 pm 18:52 Cloudy 33 0.6 20 -6.7 58 58 ENE 12 19 30.18 1022 10 16 N/A
7:52 pm 19:52 Cloudy 32 undefined 20 -6.7 61 61 ENE 13 20 30.15 1021 10 16 N/A
8:52 pm 20:52 Cloudy 32 undefined 19 -7.2 59 59 ENE 8 13 30.15 1021 10 16 N/A
9:52 pm 21:52 Cloudy 32 undefined 19 -7.2 59 59 ENE 9 15 30.13 1020 10 16 N/A
10:52 pm 22:52 Cloudy 32 undefined 19 -7.2 59 59 ENE 9 15 30.12 1020 10 16 N/A
11:52 pm 23:52 Cloudy 32 undefined 19 -7.2 59 59 E 10 17 30.10 1019 10 16 N/A

Powered by AerisWeather